Flag for Russia Weather past 2 weeks in Yuzhno-Sakhalinsk, Russia

Now
61 °F

Rain showers. Fog.


Feels Like: 61 °F
Forecast: 53 / 74 °F
Wind: No wind

Location: Yuzhno Airport-Sakhalinsk

Current Time: Aug 21, 2014 at 6:33:14 AM

Latest Report: Aug 21, 2014 at 6:00 AM


Visibility: 2 mi

Pressure: 29.86 "Hg

Humidity: 100%

Dew point: 61 °F

Location of Yuzhno-SakhalinskLocation

Historic Weather in Yuzhno-Sakhalinsk — Graph

°F

Yuzhno-Sakhalinsk temperature yesterday

Maximum temperature yesterday: 68 °F (at 1:00 PM)
Minimum temperature yesterday: 57 °F (at 6:30 AM)
Average temperature yesterday: 64 °F

Past Weeks' High & Low Weather Summary

 TemperatureHumidityPressure
High81 °F (Aug 9, 2:00 PM)100% (Aug 6, 5:00 AM)30.01 "Hg (Aug 6, 5:00 AM)
Low52 °F (Aug 18, 6:00 AM)54% (Aug 9, 2:00 PM)29.39 "Hg (Aug 11, 8:30 PM)
Average65 °F90%29.80 "Hg
* Reported Aug 6 5:00 AM — Aug 21 5:00 AM, Yuzhno-Sakhalinsk, Weather by CustomWeather, © 2014

Note: Actual official high and low records may vary slightly from our data, if they occured in-between our weather recording intervals... More about our weather records

Advertising

Yuzhno-Sakhalinsk weather history for previous 24 hours

 ConditionsComfort  
Time TempWeatherWind HumidityBarometerVisibility
5:00 AM
Aug 21
61 °FFog.No wind100%29.86 "Hg1 mi
4:00 AM61 °FPassing clouds.No wind100%29.86 "Hg4 mi
3:00 AM61 °FPassing clouds.1 mph100%29.86 "HgN/A
2:00 AM61 °FPassing clouds.No wind100%29.86 "HgN/A
1:00 AM61 °FPassing clouds.1 mph100%29.86 "HgN/A
12:00 AM61 °FPassing clouds.3 mph100%29.86 "HgN/A
11:00 PM
Aug 20
63 °FPassing clouds.3 mph94%29.86 "HgN/A
10:00 PM63 °FPassing clouds.3 mph94%29.86 "HgN/A
9:30 PM63 °FPartly sunny.6 mph100%29.86 "HgN/A
9:00 PM63 °FPartly sunny.3 mph100%29.83 "HgN/A
8:30 PM64 °FPartly sunny.3 mph94%29.83 "HgN/A
8:00 PM64 °FScattered clouds.1 mph94%29.83 "HgN/A
7:30 PM64 °FScattered clouds.1 mph94%29.83 "HgN/A
7:00 PM64 °FPartly sunny.3 mph94%29.83 "HgN/A
6:30 PM66 °FPartly sunny.3 mph88%29.83 "HgN/A
6:00 PM66 °FPartly sunny.3 mph88%29.83 "HgN/A
5:30 PM66 °FPartly sunny.3 mph88%29.83 "HgN/A
5:00 PM66 °FPartly sunny.6 mph88%29.80 "HgN/A
4:30 PM66 °FPartly sunny.6 mph88%29.80 "HgN/A
4:00 PM66 °FPartly sunny.6 mph88%29.80 "HgN/A
3:30 PM66 °FPartly sunny.6 mph88%29.83 "HgN/A
3:00 PM66 °FSprinkles. Partly sunny.6 mph94%29.83 "HgN/A
2:30 PM66 °FScattered clouds.3 mph88%29.83 "HgN/A
1:30 PM68 °FPartly sunny.3 mph83%29.83 "HgN/A
1:00 PM68 °FPartly sunny.6 mph78%29.83 "HgN/A
12:30 PM66 °FPartly sunny.8 mph83%29.83 "HgN/A
12:00 PM66 °FPartly sunny.3 mph83%29.86 "HgN/A
11:30 AM66 °FPartly sunny.3 mph83%29.86 "HgN/A
11:00 AM66 °FPartly sunny.3 mph88%29.86 "HgN/A
10:30 AM64 °FPartly sunny.6 mph88%29.83 "HgN/A
10:00 AM64 °FPartly sunny.3 mph88%29.86 "HgN/A
9:30 AM66 °FPartly sunny.No wind88%29.86 "HgN/A
9:00 AM64 °FPartly sunny.No wind100%29.86 "HgN/A
8:30 AM63 °FScattered clouds.3 mph100%29.83 "HgN/A
7:30 AM61 °FPassing clouds.1 mph100%29.86 "HgN/A
7:00 AM57 °FFog.No wind100%29.83 "Hg5 mi
6:30 AM57 °FFog.1 mph100%29.83 "Hg4 mi
6:00 AM59 °FPassing clouds.1 mph100%29.83 "HgN/A
Weather by CustomWeather, © 2014

See weather overviewHow to use our weather pages